Regional Weather Roundup
Issued by NWS Grand Forks, ND

Home | Current Version | Previous Version | Graphics & Text | Print | Product List | Glossary On
Versions: 1 2 3 4 5 6 7 8 9 10 11 12 13 14 15 16 17 18 19 20 21 22 23 24 25 26 27 28 29 30 31 32 33 34 35 36 37 38 39 40 41 42 43 44 45 46 47 48 49 50
000
ASUS43 KFGF 031810
RWRFGF
PRAIRIE TO PINES  WEATHER ROUNDUP
NATIONAL WEATHER SERVICE EASTERN NORTH DAKOTA/GRAND FORKS ND
100 PM CDT TUE MAY 03 2016

 **SATELLITE DATA USED TO AUGMENT SKY COVER AT AUTOMATED STATIONS**
 *****  WEATHER ACROSS EASTERN NORTH DAKOTA  *****

CITY           SKY/WX    TMP DP  RH WIND       PRES   REMARKS
GRAND FORKS    MOSUNNY   67  33  28 N24G35    29.88S
6HR MIN TEMP:  51; 6HR MAX TEMP:  67;

GRAND FRKS AFB SUNNY     66  29  25 N20G31    29.90S
DEVILS LAKE    SUNNY     64  29  26 N20G29    29.96S
6HR MIN TEMP:  49; 6HR MAX TEMP:  65;

FARGO          SUNNY     71  28  20 N22G33    29.84S
WAHPETON ARPT  CLEAR     72  34  25 NW24G31   29.82F
$$

 ***** WEATHER ACROSS CENTRAL AND WESTERN NORTH DAKOTA  *****

CITY           SKY/WX    TMP DP  RH WIND       PRES   REMARKS
BISMARCK       SUNNY     75  37  25 N20       29.98F
6HR MIN TEMP:  42; 6HR MAX TEMP:  75;

MINOT          SUNNY     76  29  17 N17       30.01S
6HR MIN TEMP:  53; 6HR MAX TEMP:  76;

JAMESTOWN      SUNNY     69  33  26 N23G32    29.92R
6HR MIN TEMP:  44; 6HR MAX TEMP:  69;

MINOT AFB      SUNNY     70  32  24 N16G24    30.00F
GARRISON       NOT AVBL
WILLISTON      SUNNY     77  36  22 NW14G21   30.06S
6HR MIN TEMP:  35; 6HR MAX TEMP:  77;

DICKINSON      SUNNY     73  34  23 N10       30.04F
6HR MIN TEMP:  35; 6HR MAX TEMP:  73;

HETTINGER      SUNNY     72  31  22 N8        30.07F
6HR MIN TEMP:  35; 6HR MAX TEMP:  72;

$$

 *****  OTHER AIRPORT OBSERVATIONS IN OUR AREA  *****

CITY           SKY/WX    TMP DP  RH WIND       PRES   REMARKS
WALHALLA       FAIR      63  32  31 N26G37    29.95R
GRAFTON AIRPOR FAIR      64  32  29 N25G40    29.92R
VALLEY CITY AR FAIR      68  32  26 N20G29    29.91F
CANDO          FAIR      64  27  24 N20G30    30.00S
CAVALIER APRT  FAIR      63  32  31 N29G37    29.93R
GWINNER        FAIR      75  37  25 NW23G31   29.86F
ROLLA          FAIR      64  25  22 N20G28    30.00S
 ***** THE ABOVE OBSERVATIONS ARE NON NWS ARE NOT QUALITY
       CONTROLLED AND MAY MIS-REPORT RAIN FOR SNOW...
$$

  *****  WEATHER ACROSS NORTHERN MINNESOTA  *****

CITY           SKY/WX    TMP DP  RH WIND       PRES   REMARKS
FLAG ISLAND    SUNNY     55  30  38 N16G26    29.82R
WARROAD        SUNNY     61  32  33 NW21      29.83S
ROSEAU         SUNNY     64  25  22 N24G30    29.84S
HALLOCK        SUNNY     64  25  22 N28G36    29.88S
THF RVR FALLS  SUNNY     63  28  27 NW24G35   29.86S
6HR MIN TEMP:  52; 6HR MAX TEMP:  63;

BAUDETTE       SUNNY     61  27  27 NW24G35   29.80S
6HR MIN TEMP:  54; 6HR MAX TEMP:  61;

WASKISH        SUNNY     63  34  34 N13G24    29.78S
CROOKSTON      SUNNY     66  30  26 N21G32    29.87S
STEPHEN NDAWN    N/A     64  28  25 N24         N/A
GREENBUSH NDAW   N/A     61  30  31 NW21        N/A
$$
  *****  WEATHER ACROSS CENTRAL AND WEST MINNESOTA  *****

CITY           SKY/WX    TMP DP  RH WIND       PRES   REMARKS
FOSSTON        SUNNY     64  25  22 NW24G31   29.83R
BEMIDJI        SUNNY     67  31  26 NW17G26   29.78S
PARK RAPIDS    SUNNY     71  33  24 NW22G30   29.76F
6HR MIN TEMP:  45; 6HR MAX TEMP:  71;

ELBOW LAKE     FAIR      69  41  35 NW16G24   29.83F
6HR MIN TEMP:  40; 6HR MAX TEMP:  69;

WADENA         MOSUNNY   66  41  39 W16G23    29.79F
DETROIT LAKES  SUNNY     68  32  26 N23       29.81F
MOORHEAD       SUNNY     72  27  18 N22G33    29.84S
FERGUS FALLS   MOSUNNY   72  43  35 W21G32    29.78F
MORRIS MN      CLOUDY    70  39  32 W17G24    29.83F
STAPLES        PTSUNNY   66  39  37 W18G26    29.78F
$$
  *****  WEATHER ELSEWHERE ACROSS MINNESOTA  *****

CITY           SKY/WX    TMP DP  RH WIND       PRES   REMARKS
DULUTH         PTSUNNY   62  36  37 NW16G31   29.69F
6HR MIN TEMP:  50; 6HR MAX TEMP:  67; 6HR PCP: TRACE;

INTRNTL FALLS  SUNNY     63  29  27 N18G28    29.73S
6HR MIN TEMP:  51; 6HR MAX TEMP:  64;

ELY            MOSUNNY   61  34  36 W16G25    29.67F
CLOQUET        LGT RAIN  63  36  36 W17G29    29.70F
WHEATON        MOSUNNY   73  45  35 W17G23    29.85F
BRAINERD       CLOUDY    65  39  38 W15       29.76F
6HR MIN TEMP:  44; 6HR MAX TEMP:  65;

HIBBING        MOSUNNY   61  34  36 N23G33    29.70F
6HR MIN TEMP:  49; 6HR MAX TEMP:  63; 6HR PCP: TRACE;

ALEXANDRIA     MOSUNNY   66  41  40 W20G26    29.83F
6HR MIN TEMP:  46; 6HR MAX TEMP:  69;

SAINT CLOUD    MOSUNNY   69  39  33 W22G29    29.80F
6HR MIN TEMP:  41; 6HR MAX TEMP:  69;

MINNEAPOLIS    PTSUNNY   68  37  32 NW24G37   29.83F
6HR MIN TEMP:  49; 6HR MAX TEMP:  69;

$$

  *****  WEATHER ACROSS SOUTH DAKOTA  *****

CITY           SKY/WX    TMP DP  RH WIND       PRES   REMARKS
SIOUX FALLS    MOSUNNY   64  44  48 W18G25    29.96F
6HR MIN TEMP:  36; 6HR MAX TEMP:  65;

BROOKINGS      MOSUNNY   64  43  46 NW23G30   29.92F
WATERTOWN      SUNNY     67  42  40 W17G24    29.92F
6HR MIN TEMP:  39; 6HR MAX TEMP:  67;

HURON          SUNNY     68  45  43 NW12G22   29.95F
6HR MIN TEMP:  38; 6HR MAX TEMP:  68;

SISSETON         N/A     71  42  35 NW17G25   29.84F
ABERDEEN       SUNNY     73  41  31 NW23G31   29.91F
6HR MIN TEMP:  35; 6HR MAX TEMP:  73;

MITCHELL       MOSUNNY   66  48  52 NW22      29.99F
PIERRE         SUNNY     68  42  38 NW17      30.01F
6HR MIN TEMP:  38; 6HR MAX TEMP:  68;

MOBRIDGE       SUNNY     74  43  32 NW12      29.96F
RAPID CITY     SUNNY     68  37  32 N14G21    30.11S
6HR MIN TEMP:  39; 6HR MAX TEMP:  69;

$$

  *****  SOME WEATHER IN NEARBY STATES *****

CITY           SKY/WX    TMP DP  RH WIND       PRES   REMARKS
GLASGOW MT     SUNNY     74  37  26 VRB3      30.09S
GREAT FALLS MT SUNNY     71  34  25 SW9       30.12S
6HR MIN TEMP:  36; 6HR MAX TEMP:  71;

CHEYENNE WY    MOSUNNY   57  31  37 NW17G26   30.24F
6HR MIN TEMP:  41; 6HR MAX TEMP:  60;

SCOTTSBLUFF NE SUNNY     68  35  29 NW18G24   30.14F
6HR MIN TEMP:  36; 6HR MAX TEMP:  69;

OMAHA NE       MOSUNNY   67  41  38 W6        30.02F
6HR MIN TEMP:  43; 6HR MAX TEMP:  68;

DES MOINES IA  MOSUNNY   68  38  33 W10       29.99F
6HR MIN TEMP:  45; 6HR MAX TEMP:  68;

DAVENPORT IA   MOSUNNY   66  39  37 W15       29.96F
6HR MIN TEMP:  42; 6HR MAX TEMP:  66;

CHICAGO IL     PTSUNNY   63  38  39 W7        29.89F
6HR MIN TEMP:  47; 6HR MAX TEMP:  65;

EAU CLAIRE WI  CLOUDY    69  31  24 W23G29    29.79F
6HR MIN TEMP:  44; 6HR MAX TEMP:  69;

LA CROSSE WI   CLOUDY    68  36  30 W14       29.84F
6HR MIN TEMP:  48; 6HR MAX TEMP:  70;

$$

  *****  SOME NATIONAL WEATHER *****

CITY           SKY/WX    TMP DP  RH WIND       PRES   REMARKS
LA GUARDIA NY  DRIZZLE   53  51  93 NE14      29.83S
6HR MIN TEMP:  52; 6HR MAX TEMP:  55; 6HR PCP:  0.06;

RALEIGH NC     CLOUDY    73  64  73 SW6       29.79F
6HR MIN TEMP:  65; 6HR MAX TEMP:  76; 6HR PCP:  0.04;

ATLANTA GA     PTSUNNY   72  60  66 NW12      29.89F
6HR MIN TEMP:  65; 6HR MAX TEMP:  76;

NEW ORLEANS LA CLOUDY    74  67  78 N7        29.95F
6HR MIN TEMP:  70; 6HR MAX TEMP:  75;

OKLAHOMA CITY  PTSUNNY   67  37  33 SW6       30.10F
6HR MIN TEMP:  42; 6HR MAX TEMP:  69;

ALBUQUERQUE NM MOSUNNY   65  33  30 N6        30.21F
6HR MIN TEMP:  46; 6HR MAX TEMP:  65;

SALT LAKE CITY MOSUNNY   67  34  29 NW7       30.24S
6HR MIN TEMP:  47; 6HR MAX TEMP:  67;

LOS ANGELES CA MOSUNNY   66  56  70 W13       29.99R
6HR MIN TEMP:  57; 6HR MAX TEMP:  66;

BOISE ID       SUNNY     72  36  26 SE8       30.15F
6HR MIN TEMP:  53; 6HR MC1F1C2F2C3F3C4F4C5F5C6F6C7F7C8F8C9F9CaFaCbFbCcFcCd!


USA.gov is the U.S. government's official web portal to all federal, state and local government web resources and services.